Time,TemperatureF,DewpointF,PressureIn,WindDirection,WindDirectionDegrees,WindSpeedMPH,WindSpeedGustMPH,Humidity,HourlyPrecipIn,Conditions,Clouds,dailyrainin,SolarRadiationWatts/m^2,SoftwareType,DateUTC
2013-03-02 00:00:00,49.8,0.0,30.21,SSW,195,0.0,0.0,0,0.00,,---,0.00,0.00,VWS V14.00,2013-03-02 06:00:00,
2013-03-02 00:05:00,49.2,0.0,30.21,SSW,196,0.0,1.0,0,0.00,,---,0.00,0.00,VWS V14.00,2013-03-02 06:05:00,
2013-03-02 00:10:00,49.2,0.0,30.21,WNW,299,1.0,2.0,0,0.00,,---,0.00,0.00,VWS V14.00,2013-03-02 06:10:00,
2013-03-02 00:15:00,49.8,0.0,30.22,WNW,299,0.0,2.0,0,0.00,,---,0.00,0.00,VWS V14.00,2013-03-02 06:15:00,
2013-03-02 00:20:00,50.1,0.0,30.22,WNW,301,1.0,1.0,0,0.00,,---,0.00,0.00,VWS V14.00,2013-03-02 06:20:00,
2013-03-02 00:25:00,50.2,0.0,30.22,WNW,302,0.0,2.0,0,0.00,,---,0.00,0.00,VWS V14.00,2013-03-02 06:25:00,
2013-03-02 00:30:00,50.2,0.0,30.23,WNW,302,0.0,2.0,0,0.00,,---,0.00,0.00,VWS V14.00,2013-03-02 06:30:00,
2013-03-02 00:35:00,50.4,0.0,30.23,NW,305,1.0,2.0,0,0.00,,---,0.00,0.00,VWS V14.00,2013-03-02 06:35:00,
2013-03-02 00:40:00,50.7,0.0,30.23,NW,313,0.0,0.0,0,0.00,,---,0.00,0.00,VWS V14.00,2013-03-02 06:40:00,
2013-03-02 00:45:00,50.7,0.0,30.22,NW,313,0.0,0.0,0,0.00,,---,0.00,0.00,VWS V14.00,2013-03-02 06:45:00,
2013-03-02 00:50:00,50.7,0.0,30.22,NW,313,0.0,0.0,0,0.00,,---,0.00,0.00,VWS V14.00,2013-03-02 06:50:00,
2013-03-02 00:55:00,50.4,0.0,30.22,SW,222,0.0,0.0,0,0.00,,---,0.00,0.00,VWS V14.00,2013-03-02 06:55:00,
2013-03-02 01:00:00,50.2,0.0,30.22,SW,222,0.0,0.0,0,0.00,,---,0.00,0.00,VWS V14.00,2013-03-02 07:00:00,
2013-03-02 01:05:00,49.9,0.0,30.22,SW,222,0.0,0.0,0,0.00,,---,0.00,0.00,VWS V14.00,2013-03-02 07:05:00,
2013-03-02 01:10:00,49.6,0.0,30.22,SW,222,0.0,0.0,0,0.00,,---,0.00,0.00,VWS V14.00,2013-03-02 07:10:00,
2013-03-02 01:15:00,50.1,50.1,30.22,SW,224,1.0,2.0,100,0.00,,---,0.00,0.00,VWS V14.00,2013-03-02 07:15:00,
2013-03-02 01:20:00,49.6,0.0,30.22,WSW,246,3.0,3.0,0,0.00,,---,0.00,0.00,VWS V14.00,2013-03-02 07:20:00,
2013-03-02 01:25:00,49.1,0.0,30.22,West,272,0.0,1.0,0,0.00,,---,0.00,0.00,VWS V14.00,2013-03-02 07:25:00,
2013-03-02 01:30:00,48.6,0.0,30.23,WNW,299,1.0,3.0,0,0.00,,---,0.00,0.00,VWS V14.00,2013-03-02 07:30:00,
2013-03-02 01:35:00,48.5,0.0,30.23,WNW,296,1.0,1.0,0,0.00,,---,0.00,0.00,VWS V14.00,2013-03-02 07:35:00,
2013-03-02 01:40:00,48.3,0.0,30.23,WNW,296,1.0,1.0,0,0.00,,---,0.00,0.00,VWS V14.00,2013-03-02 07:40:00,
2013-03-02 01:45:00,48.3,0.0,30.23,WNW,298,0.0,0.0,0,0.00,,---,0.00,0.00,VWS V14.00,2013-03-02 07:45:00,
2013-03-02 01:50:00,48.2,0.0,30.23,WNW,296,0.0,0.0,0,0.00,,---,0.00,0.00,VWS V14.00,2013-03-02 07:50:00,
2013-03-02 01:55:00,48.2,0.0,30.23,WNW,296,0.0,0.0,0,0.00,,---,0.00,0.00,VWS V14.00,2013-03-02 07:55:00,
2013-03-02 02:00:00,48.0,0.0,30.22,WNW,298,0.0,0.0,0,0.00,,---,0.00,0.00,VWS V14.00,2013-03-02 08:00:00,
2013-03-02 02:05:00,47.9,0.0,30.22,WNW,296,0.0,0.0,0,0.00,,---,0.00,0.00,VWS V14.00,2013-03-02 08:05:00,
2013-03-02 02:10:00,47.4,0.0,30.22,WNW,296,0.0,0.0,0,0.00,,---,0.00,0.00,VWS V14.00,2013-03-02 08:10:00,
2013-03-02 02:15:00,47.3,0.0,30.22,WNW,296,0.0,0.0,0,0.00,,---,0.00,0.00,VWS V14.00,2013-03-02 08:15:00,
2013-03-02 02:20:00,46.8,0.0,30.22,WNW,298,0.0,0.0,0,0.00,,---,0.00,0.00,VWS V14.00,2013-03-02 08:20:00,
2013-03-02 02:25:00,46.8,0.0,30.22,WNW,298,0.0,0.0,0,0.00,,---,0.00,0.00,VWS V14.00,2013-03-02 08:25:00,
2013-03-02 02:30:00,46.8,0.0,30.22,WNW,296,0.0,0.0,0,0.00,,---,0.00,0.00,VWS V14.00,2013-03-02 08:30:00,
2013-03-02 02:35:00,46.7,0.0,30.22,WNW,296,1.0,1.0,0,0.00,,---,0.00,0.00,VWS V14.00,2013-03-02 08:35:00,
2013-03-02 02:40:00,46.7,0.0,30.22,WNW,298,0.0,0.0,0,0.00,,---,0.00,0.00,VWS V14.00,2013-03-02 08:40:00,
2013-03-02 02:45:00,46.7,0.0,30.22,WNW,298,0.0,0.0,0,0.00,,---,0.00,0.00,VWS V14.00,2013-03-02 08:45:00,
2013-03-02 02:50:00,45.9,-38.0,30.22,WNW,298,0.0,0.0,2,0.00,,---,0.00,0.00,VWS V14.00,2013-03-02 08:50:00,
2013-03-02 02:55:00,45.4,-25.9,30.22,WNW,298,0.0,0.0,4,0.00,,---,0.00,0.00,VWS V14.00,2013-03-02 08:55:00,
2013-03-02 03:00:00,45.5,-31.1,30.22,WNW,298,1.0,1.0,3,0.00,,---,0.00,0.00,VWS V14.00,2013-03-02 09:00:00,
2013-03-02 03:05:00,45.9,-38.0,30.22,NW,319,2.0,3.0,2,0.00,,---,0.00,0.00,VWS V14.00,2013-03-02 09:05:00,
2013-03-02 03:10:00,46.4,0.0,30.22,NW,325,2.0,2.0,0,0.00,,---,0.00,0.00,VWS V14.00,2013-03-02 09:10:00,
2013-03-02 03:15:00,46.4,0.0,30.22,NW,325,2.0,2.0,0,0.00,,---,0.00,0.00,VWS V14.00,2013-03-02 09:15:00,
2013-03-02 03:20:00,46.2,0.0,30.22,NW,325,3.0,3.0,0,0.00,,---,0.00,0.00,VWS V14.00,2013-03-02 09:20:00,
2013-03-02 03:25:00,46.1,0.0,30.22,NW,325,2.0,2.0,0,0.00,,---,0.00,0.00,VWS V14.00,2013-03-02 09:25:00,
2013-03-02 03:30:00,45.8,-38.1,30.23,NNW,330,1.0,1.0,2,0.00,,---,0.00,0.00,VWS V14.00,2013-03-02 09:30:00,
2013-03-02 03:35:00,45.5,-38.3,30.23,NNW,336,3.0,5.0,2,0.00,,---,0.00,0.00,VWS V14.00,2013-03-02 09:35:00,
2013-03-02 03:40:00,45.4,-38.3,30.23,WNW,298,2.0,3.0,2,0.00,,---,0.00,0.00,VWS V14.00,2013-03-02 09:40:00,
2013-03-02 03:44:00,45.4,-38.3,30.24,NNW,333,5.0,5.0,2,0.00,,---,0.00,0.00,VWS V14.00,2013-03-02 09:44:00,
2013-03-02 03:49:00,45.5,-38.3,30.24,NNW,336,3.0,3.0,2,0.00,,---,0.00,0.00,VWS V14.00,2013-03-02 09:49:00,
2013-03-02 03:54:00,45.5,-38.3,30.24,NW,326,1.0,1.0,2,0.00,,---,0.00,0.00,VWS V14.00,2013-03-02 09:54:00,
2013-03-02 03:59:00,45.5,-38.3,30.24,NNW,330,1.0,1.0,2,0.00,,---,0.00,0.00,VWS V14.00,2013-03-02 09:59:00,
2013-03-02 04:04:00,45.5,0.0,30.24,NNW,346,3.0,3.0,0,0.00,,---,0.00,0.00,VWS V14.00,2013-03-02 10:04:00,
2013-03-02 04:09:00,45.5,0.0,30.24,North,356,6.0,7.0,0,0.00,,---,0.00,0.00,VWS V14.00,2013-03-02 10:09:00,
2013-03-02 04:15:00,45.7,0.0,30.24,NW,322,3.0,3.0,0,0.00,,---,0.00,0.00,VWS V14.00,2013-03-02 10:15:00,
2013-03-02 04:20:00,45.5,0.0,30.24,NNW,330,3.0,4.0,0,0.00,,---,0.00,0.00,VWS V14.00,2013-03-02 10:20:00,
2013-03-02 04:25:00,45.4,0.0,30.24,NNW,343,0.0,1.0,0,0.00,,---,0.00,0.00,VWS V14.00,2013-03-02 10:25:00,
2013-03-02 04:30:00,45.5,0.0,30.24,NNW,339,5.0,5.0,0,0.00,,---,0.00,0.00,VWS V14.00,2013-03-02 10:30:00,
2013-03-02 04:35:00,45.5,0.0,30.24,NNW,343,6.0,7.0,0,0.00,,---,0.00,0.00,VWS V14.00,2013-03-02 10:35:00,
2013-03-02 04:40:00,45.4,0.0,30.24,NNW,336,5.0,7.0,0,0.00,,---,0.00,0.00,VWS V14.00,2013-03-02 10:40:00,
2013-03-02 04:45:00,45.2,0.0,30.24,North,357,9.0,9.0,0,0.00,,---,0.00,0.00,VWS V14.00,2013-03-02 10:45:00,
2013-03-02 04:50:00,45.4,0.0,30.24,North,0,7.0,7.0,0,0.00,,---,0.00,0.00,VWS V14.00,2013-03-02 10:50:00,
2013-03-02 04:55:00,45.4,0.0,30.24,NW,318,7.0,7.0,0,0.00,,---,0.00,0.00,VWS V14.00,2013-03-02 10:55:00,
2013-03-02 05:00:00,45.4,0.0,30.25,North,356,6.0,7.0,0,0.00,,---,0.00,0.00,VWS V14.00,2013-03-02 11:00:00,
2013-03-02 05:05:00,45.4,0.0,30.25,NNW,333,3.0,8.0,0,0.00,,---,0.00,0.00,VWS V14.00,2013-03-02 11:05:00,
2013-03-02 05:10:00,45.2,0.0,30.25,North,353,4.0,6.0,0,0.00,,---,0.00,0.00,VWS V14.00,2013-03-02 11:10:00,
2013-03-02 05:15:00,45.1,0.0,30.25,NNW,329,6.0,6.0,0,0.00,,---,0.00,0.00,VWS V14.00,2013-03-02 11:15:00,
2013-03-02 05:20:00,44.9,0.0,30.25,North,0,4.0,6.0,0,0.00,,---,0.00,0.00,VWS V14.00,2013-03-02 11:20:00,
2013-03-02 05:25:00,44.8,0.0,30.25,NNW,344,8.0,8.0,0,0.00,,---,0.00,0.00,VWS V14.00,2013-03-02 11:25:00,
2013-03-02 05:30:00,44.6,0.0,30.25,NNW,329,6.0,8.0,0,0.00,,---,0.00,0.00,VWS V14.00,2013-03-02 11:30:00,
2013-03-02 05:35:00,44.6,0.0,30.25,NNW,344,6.0,7.0,0,0.00,,---,0.00,0.00,VWS V14.00,2013-03-02 11:35:00,
2013-03-02 05:40:00,44.5,0.0,30.25,NNW,329,6.0,8.0,0,0.00,,---,0.00,0.00,VWS V14.00,2013-03-02 11:40:00,
2013-03-02 05:45:00,44.2,0.0,30.26,NW,325,7.0,8.0,0,0.00,,---,0.00,0.00,VWS V14.00,2013-03-02 11:45:00,
2013-03-02 05:50:00,43.9,-39.3,30.26,NNW,329,5.0,5.0,2,0.00,,---,0.00,0.00,VWS V14.00,2013-03-02 11:50:00,
2013-03-02 05:55:00,43.8,-39.4,30.26,NNW,344,5.0,5.0,2,0.00,,---,0.00,0.00,VWS V14.00,2013-03-02 11:55:00,
2013-03-02 06:00:00,43.6,-39.5,30.26,NNW,336,7.0,7.0,2,0.00,,---,0.00,0.00,VWS V14.00,2013-03-02 12:00:00,
2013-03-02 06:05:00,43.5,-39.6,30.26,NW,308,6.0,6.0,2,0.00,,---,0.00,0.00,VWS V14.00,2013-03-02 12:05:00,
2013-03-02 06:10:00,43.3,-39.7,30.26,NW,316,2.0,5.0,2,0.00,,---,0.00,0.00,VWS V14.00,2013-03-02 12:10:00,
2013-03-02 06:15:00,43.0,-32.8,30.27,NNW,329,5.0,6.0,3,0.00,,---,0.00,0.00,VWS V14.00,2013-03-02 12:15:00,
2013-03-02 06:20:00,42.8,-27.7,30.27,NNW,336,6.0,7.0,4,0.00,,---,0.00,0.00,VWS V14.00,2013-03-02 12:20:00,
2013-03-02 06:25:00,42.5,-27.9,30.27,NNW,330,5.0,7.0,4,0.00,,---,0.00,0.00,VWS V14.00,2013-03-02 12:25:00,
2013-03-02 06:30:00,42.3,-23.9,30.27,North,0,5.0,6.0,5,0.00,,---,0.00,0.00,VWS V14.00,2013-03-02 12:30:00,
2013-03-02 06:35:00,42.2,-24.0,30.27,NW,318,6.0,6.0,5,0.00,,---,0.00,0.00,VWS V14.00,2013-03-02 12:35:00,
2013-03-02 06:40:00,42.0,-24.1,30.27,NW,325,5.0,5.0,5,0.00,,---,0.00,0.00,VWS V14.00,2013-03-02 12:40:00,
2013-03-02 06:45:00,41.9,-20.7,30.28,NNW,347,8.0,10.0,6,0.00,,---,0.00,0.00,VWS V14.00,2013-03-02 12:45:00,
2013-03-02 06:50:00,41.8,-20.8,30.28,North,354,5.0,7.0,6,0.00,,---,0.00,0.00,VWS V14.00,2013-03-02 12:50:00,
2013-03-02 06:55:00,41.6,-21.0,30.28,North,0,3.0,5.0,6,0.00,,---,0.00,12.00,VWS V14.00,2013-03-02 12:55:00,
2013-03-02 07:00:00,41.6,-21.0,30.28,NNW,333,6.0,6.0,6,0.00,,---,0.00,19.00,VWS V14.00,2013-03-02 13:00:00,
2013-03-02 07:05:00,41.6,-21.0,30.28,NW,319,5.0,5.0,6,0.00,,---,0.00,30.00,VWS V14.00,2013-03-02 13:05:00,
2013-03-02 07:10:00,41.8,-24.3,30.28,NNW,337,6.0,7.0,5,0.00,,---,0.00,37.00,VWS V14.00,2013-03-02 13:10:00,
2013-03-02 07:14:00,41.9,-24.2,30.29,NW,325,3.0,4.0,5,0.00,,---,0.00,55.00,VWS V14.00,2013-03-02 13:14:00,
2013-03-02 07:19:00,42.0,-28.3,30.29,NNW,337,6.0,7.0,4,0.00,,---,0.00,90.00,VWS V14.00,2013-03-02 13:19:00,
2013-03-02 07:24:00,42.3,-28.0,30.29,North,359,9.0,9.0,4,0.00,,---,0.00,104.00,VWS V14.00,2013-03-02 13:24:00,
2013-03-02 07:29:00,42.5,-33.1,30.30,North,352,7.0,7.0,3,0.00,,---,0.00,123.00,VWS V14.00,2013-03-02 13:29:00,
2013-03-02 07:34:00,42.8,-32.9,30.30,NNW,330,10.0,12.0,3,0.00,,---,0.00,137.00,VWS V14.00,2013-03-02 13:34:00,
2013-03-02 07:39:00,42.9,-40.0,30.30,NNW,347,5.0,5.0,2,0.00,,---,0.00,155.00,VWS V14.00,2013-03-02 13:39:00,
2013-03-02 07:44:00,43.0,-39.9,30.30,North,352,8.0,11.0,2,0.00,,---,0.00,171.00,VWS V14.00,2013-03-02 13:44:00,
2013-03-02 07:49:00,43.3,0.0,30.30,North,359,9.0,11.0,0,0.00,,---,0.00,190.00,VWS V14.00,2013-03-02 13:49:00,
2013-03-02 07:54:00,43.5,0.0,30.30,NNW,328,10.0,10.0,0,0.00,,---,0.00,206.00,VWS V14.00,2013-03-02 13:54:00,
2013-03-02 07:59:00,43.6,0.0,30.30,NNW,342,8.0,16.0,0,0.00,,---,0.00,225.00,VWS V14.00,2013-03-02 13:59:00,
2013-03-02 08:04:00,43.9,0.0,30.30,North,353,10.0,14.0,0,0.00,,---,0.00,243.00,VWS V14.00,2013-03-02 14:04:00,
2013-03-02 08:09:00,44.0,0.0,30.30,North,0,7.0,10.0,0,0.00,,---,0.00,260.00,VWS V14.00,2013-03-02 14:09:00,
2013-03-02 08:14:00,44.0,0.0,30.31,NNW,343,10.0,14.0,0,0.00,,---,0.00,280.00,VWS V14.00,2013-03-02 14:14:00,
2013-03-02 08:19:00,44.0,0.0,30.31,NNW,333,7.0,13.0,0,0.00,,---,0.00,296.00,VWS V14.00,2013-03-02 14:19:00,
2013-03-02 08:24:00,44.2,0.0,30.31,NNW,340,10.0,14.0,0,0.00,,---,0.00,313.00,VWS V14.00,2013-03-02 14:24:00,
2013-03-02 08:29:00,44.3,0.0,30.31,NNW,339,14.0,17.0,0,0.00,,---,0.00,333.00,VWS V14.00,2013-03-02 14:29:00,
2013-03-02 08:34:00,44.3,0.0,30.31,NNW,337,18.0,20.0,0,0.00,,---,0.00,352.00,VWS V14.00,2013-03-02 14:34:00,
2013-03-02 08:39:00,44.2,0.0,30.31,NNW,339,16.0,20.0,0,0.00,,---,0.00,371.00,VWS V14.00,2013-03-02 14:39:00,
2013-03-02 08:44:00,44.6,0.0,30.32,NNW,347,4.0,11.0,0,0.00,,---,0.00,385.00,VWS V14.00,2013-03-02 14:44:00,
2013-03-02 08:49:00,44.9,0.0,30.32,NNW,330,12.0,13.0,0,0.00,,---,0.00,405.00,VWS V14.00,2013-03-02 14:49:00,
2013-03-02 08:54:00,44.8,0.0,30.32,NNW,339,14.0,19.0,0,0.00,,---,0.00,424.00,VWS V14.00,2013-03-02 14:54:00,
2013-03-02 08:59:00,44.6,0.0,30.32,North,352,9.0,17.0,0,0.00,,---,0.00,442.00,VWS V14.00,2013-03-02 14:59:00,
2013-03-02 09:04:00,45.1,0.0,30.32,North,0,10.0,18.0,0,0.00,,---,0.00,457.00,VWS V14.00,2013-03-02 15:04:00,
2013-03-02 09:09:00,45.7,0.0,30.32,NNW,342,6.0,7.0,0,0.00,,---,0.00,470.00,VWS V14.00,2013-03-02 15:09:00,
2013-03-02 09:14:00,45.8,45.8,30.32,NNW,347,16.0,17.0,100,0.00,,---,0.00,493.00,VWS V14.00,2013-03-02 15:14:00,
2013-03-02 09:19:00,45.8,45.8,30.32,NNE,16,8.0,14.0,100,0.00,,---,0.00,505.00,VWS V14.00,2013-03-02 15:19:00,
2013-03-02 09:24:00,45.7,45.7,30.32,NNW,343,19.0,19.0,100,0.00,,---,0.00,523.00,VWS V14.00,2013-03-02 15:24:00,
2013-03-02 09:29:00,45.7,45.7,30.33,North,0,17.0,19.0,100,0.00,,---,0.00,540.00,VWS V14.00,2013-03-02 15:29:00,
2013-03-02 09:34:00,45.5,45.5,30.33,North,0,11.0,17.0,100,0.00,,---,0.00,551.00,VWS V14.00,2013-03-02 15:34:00,
2013-03-02 09:39:00,45.9,45.9,30.33,North,7,16.0,16.0,100,0.00,,---,0.00,568.00,VWS V14.00,2013-03-02 15:39:00,
2013-03-02 09:44:00,46.2,46.2,30.32,North,0,8.0,14.0,100,0.00,,---,0.00,582.00,VWS V14.00,2013-03-02 15:44:00,
2013-03-02 09:49:00,46.5,46.5,30.32,NW,313,12.0,12.0,100,0.00,,---,0.00,596.00,VWS V14.00,2013-03-02 15:49:00,
2013-03-02 09:54:00,46.8,46.8,30.32,North,0,17.0,17.0,100,0.00,,---,0.00,605.00,VWS V14.00,2013-03-02 15:54:00,
2013-03-02 09:59:00,46.7,46.7,30.32,North,0,7.0,17.0,100,0.00,,---,0.00,625.00,VWS V14.00,2013-03-02 15:59:00,
2013-03-02 10:04:00,46.5,46.5,30.32,NNW,346,9.0,12.0,100,0.00,,---,0.00,637.00,VWS V14.00,2013-03-02 16:04:00,
2013-03-02 10:09:00,47.0,47.0,30.32,NNW,346,10.0,14.0,100,0.00,,---,0.00,649.00,VWS V14.00,2013-03-02 16:09:00,
2013-03-02 10:14:00,47.3,47.3,30.32,North,354,10.0,13.0,100,0.00,,---,0.00,669.00,VWS V14.00,2013-03-02 16:14:00,
2013-03-02 10:19:00,47.3,47.3,30.32,NW,323,10.0,12.0,100,0.00,,---,0.00,681.00,VWS V14.00,2013-03-02 16:19:00,
2013-03-02 10:24:00,47.4,47.4,30.32,NNW,335,16.0,18.0,100,0.00,,---,0.00,691.00,VWS V14.00,2013-03-02 16:24:00,
2013-03-02 10:29:00,47.6,47.6,30.32,NW,311,14.0,14.0,100,0.00,,---,0.00,700.00,VWS V14.00,2013-03-02 16:29:00,
2013-03-02 10:34:00,47.6,47.6,30.32,North,0,14.0,14.0,100,0.00,,---,0.00,707.00,VWS V14.00,2013-03-02 16:34:00,
2013-03-02 10:39:00,47.9,47.9,30.32,West,270,5.0,11.0,100,0.00,,---,0.00,723.00,VWS V14.00,2013-03-02 16:39:00,
2013-03-02 10:44:00,47.7,47.7,30.31,NNW,343,8.0,9.0,100,0.00,,---,0.00,732.00,VWS V14.00,2013-03-02 16:44:00,
2013-03-02 10:49:00,47.9,47.9,30.31,NNW,328,8.0,13.0,100,0.00,,---,0.00,739.00,VWS V14.00,2013-03-02 16:49:00,
2013-03-02 10:54:00,47.9,47.9,30.31,North,350,14.0,21.0,100,0.00,,---,0.00,755.00,VWS V14.00,2013-03-02 16:54:00,
2013-03-02 10:59:00,48.5,48.5,30.31,NNW,342,13.0,13.0,100,0.00,,---,0.00,757.00,VWS V14.00,2013-03-02 16:59:00,
2013-03-02 11:04:00,48.8,48.8,30.31,North,350,12.0,12.0,100,0.00,,---,0.00,760.00,VWS V14.00,2013-03-02 17:04:00,
2013-03-02 11:09:00,49.3,49.3,30.31,NW,323,8.0,9.0,100,0.00,,---,0.00,776.00,VWS V14.00,2013-03-02 17:09:00,
2013-03-02 11:14:00,49.3,49.3,30.31,North,0,10.0,10.0,100,0.00,,---,0.00,783.00,VWS V14.00,2013-03-02 17:14:00,
2013-03-02 11:19:00,49.3,49.3,30.31,NNW,330,6.0,12.0,100,0.00,,---,0.00,788.00,VWS V14.00,2013-03-02 17:19:00,
2013-03-02 11:24:00,49.3,49.3,30.31,NNW,328,11.0,11.0,100,0.00,,---,0.00,794.00,VWS V14.00,2013-03-02 17:24:00,
2013-03-02 11:29:00,49.1,49.1,30.31,North,357,22.0,24.0,100,0.00,,---,0.00,804.00,VWS V14.00,2013-03-02 17:29:00,
2013-03-02 11:34:00,49.3,49.3,30.31,NNW,329,13.0,18.0,100,0.00,,---,0.00,809.00,VWS V14.00,2013-03-02 17:34:00,
2013-03-02 11:39:00,49.8,49.8,30.31,NW,326,19.0,20.0,100,0.00,,---,0.00,809.00,VWS V14.00,2013-03-02 17:39:00,
2013-03-02 11:44:00,49.6,49.6,30.30,NW,311,18.0,20.0,100,0.00,,---,0.00,822.00,VWS V14.00,2013-03-02 17:44:00,
2013-03-02 11:49:00,50.1,50.1,30.30,North,356,8.0,22.0,100,0.00,,---,0.00,825.00,VWS V14.00,2013-03-02 17:49:00,
2013-03-02 11:54:00,50.2,50.2,30.30,WNW,289,5.0,13.0,100,0.00,,---,0.00,829.00,VWS V14.00,2013-03-02 17:54:00,
2013-03-02 11:59:00,50.2,50.2,30.30,NNW,335,10.0,17.0,100,0.00,,---,0.00,830.00,VWS V14.00,2013-03-02 17:59:00,
2013-03-02 12:04:00,50.5,50.5,30.30,NW,311,16.0,20.0,100,0.00,,---,0.00,836.00,VWS V14.00,2013-03-02 18:04:00,
2013-03-02 12:09:00,50.8,50.8,30.30,NW,306,21.0,21.0,100,0.00,,---,0.00,838.00,VWS V14.00,2013-03-02 18:09:00,
2013-03-02 12:14:00,50.8,50.8,30.29,NNW,328,21.0,21.0,100,0.00,,---,0.00,843.00,VWS V14.00,2013-03-02 18:14:00,
2013-03-02 12:19:00,50.7,50.7,30.29,NW,318,14.0,16.0,100,0.00,,---,0.00,846.00,VWS V14.00,2013-03-02 18:19:00,
2013-03-02 12:24:00,51.0,51.0,30.29,NNW,339,10.0,18.0,100,0.00,,---,0.00,843.00,VWS V14.00,2013-03-02 18:24:00,
2013-03-02 12:29:00,50.8,50.8,30.28,NNW,343,13.0,13.0,100,0.00,,---,0.00,838.00,VWS V14.00,2013-03-02 18:29:00,
2013-03-02 12:34:00,50.8,50.8,30.28,WNW,289,12.0,13.0,100,0.00,,---,0.00,839.00,VWS V14.00,2013-03-02 18:34:00,
2013-03-02 12:39:00,51.0,51.0,30.28,NW,315,13.0,17.0,100,0.00,,---,0.00,843.00,VWS V14.00,2013-03-02 18:39:00,
2013-03-02 12:44:00,51.1,51.1,30.27,NNW,346,13.0,20.0,100,0.00,,---,0.00,841.00,VWS V14.00,2013-03-02 18:44:00,
2013-03-02 12:49:00,51.3,51.3,30.27,NNW,335,11.0,17.0,100,0.00,,---,0.00,834.00,VWS V14.00,2013-03-02 18:49:00,
2013-03-02 12:54:00,51.4,51.4,30.27,NW,306,12.0,12.0,100,0.00,,---,0.00,836.00,VWS V14.00,2013-03-02 18:54:00,
2013-03-02 12:59:00,51.3,51.3,30.27,NW,322,16.0,16.0,100,0.00,,---,0.00,832.00,VWS V14.00,2013-03-02 18:59:00,
2013-03-02 13:04:00,51.7,51.7,30.27,NNW,342,3.0,12.0,100,0.00,,---,0.00,830.00,VWS V14.00,2013-03-02 19:04:00,
2013-03-02 13:09:00,52.0,52.0,30.27,NW,325,24.0,24.0,100,0.00,,---,0.00,827.00,VWS V14.00,2013-03-02 19:09:00,
2013-03-02 13:14:00,51.9,51.9,30.26,NNW,346,17.0,17.0,100,0.00,,---,0.00,825.00,VWS V14.00,2013-03-02 19:14:00,
2013-03-02 13:19:00,52.0,52.0,30.26,NW,305,20.0,21.0,100,0.00,,---,0.00,822.00,VWS V14.00,2013-03-02 19:19:00,
2013-03-02 13:24:00,52.3,52.3,30.26,WNW,302,15.0,20.0,100,0.00,,---,0.00,818.00,VWS V14.00,2013-03-02 19:24:00,
2013-03-02 13:29:00,52.9,52.9,30.26,NW,312,12.0,17.0,100,0.00,,---,0.00,811.00,VWS V14.00,2013-03-02 19:29:00,
2013-03-02 13:34:00,52.9,52.9,30.26,NNW,332,17.0,19.0,100,0.00,,---,0.00,804.00,VWS V14.00,2013-03-02 19:34:00,
2013-03-02 13:39:00,52.8,52.8,30.26,NW,315,9.0,15.0,100,0.00,,---,0.00,795.00,VWS V14.00,2013-03-02 19:39:00,
2013-03-02 13:44:00,53.5,53.5,30.25,NW,311,14.0,17.0,100,0.00,,---,0.00,790.00,VWS V14.00,2013-03-02 19:44:00,
2013-03-02 13:49:00,53.2,53.2,30.25,WNW,299,14.0,17.0,100,0.00,,---,0.00,794.00,VWS V14.00,2013-03-02 19:49:00,
2013-03-02 13:54:00,53.0,53.0,30.25,North,359,17.0,22.0,100,0.00,,---,0.00,779.00,VWS V14.00,2013-03-02 19:54:00,
2013-03-02 13:59:00,53.3,53.3,30.24,NW,315,11.0,12.0,100,0.00,,---,0.00,767.00,VWS V14.00,2013-03-02 19:59:00,
2013-03-02 14:04:00,53.5,53.5,30.24,NW,326,8.0,11.0,100,0.00,,---,0.00,758.00,VWS V14.00,2013-03-02 20:04:00,
2013-03-02 14:09:00,53.6,53.6,30.24,WNW,285,16.0,24.0,100,0.00,,---,0.00,748.00,VWS V14.00,2013-03-02 20:09:00,
2013-03-02 14:14:00,53.5,53.5,30.24,NW,308,18.0,18.0,100,0.00,,---,0.00,746.00,VWS V14.00,2013-03-02 20:14:00,
2013-03-02 14:19:00,53.8,53.8,30.24,NW,311,18.0,19.0,100,0.00,,---,0.00,735.00,VWS V14.00,2013-03-02 20:19:00,
2013-03-02 14:24:00,53.5,53.5,30.24,West,275,13.0,13.0,100,0.00,,---,0.00,725.00,VWS V14.00,2013-03-02 20:24:00,
2013-03-02 14:29:00,53.9,53.9,30.24,WNW,287,10.0,11.0,100,0.00,,---,0.00,713.00,VWS V14.00,2013-03-02 20:29:00,
2013-03-02 14:34:00,53.9,53.9,30.24,WNW,302,12.0,13.0,100,0.00,,---,0.00,706.00,VWS V14.00,2013-03-02 20:34:00,
2013-03-02 14:39:00,54.5,54.5,30.24,NW,316,16.0,20.0,100,0.00,,---,0.00,695.00,VWS V14.00,2013-03-02 20:39:00,
2013-03-02 14:44:00,54.4,54.4,30.24,NW,308,8.0,11.0,100,0.00,,---,0.00,676.00,VWS V14.00,2013-03-02 20:44:00,
2013-03-02 14:48:00,54.2,54.2,30.23,North,353,13.0,13.0,100,0.00,,---,0.00,669.00,VWS V14.00,2013-03-02 20:48:00,
2013-03-02 14:53:00,54.5,54.5,30.23,West,272,11.0,12.0,100,0.00,,---,0.00,655.00,VWS V14.00,2013-03-02 20:53:00,
2013-03-02 14:59:00,54.4,54.4,30.23,NW,319,14.0,21.0,100,0.00,,---,0.00,637.00,VWS V14.00,2013-03-02 20:59:00,
2013-03-02 15:04:00,54.7,54.7,30.23,NNW,329,14.0,16.0,100,0.00,,---,0.00,633.00,VWS V14.00,2013-03-02 21:04:00,
2013-03-02 15:08:00,54.8,54.8,30.23,NW,318,17.0,17.0,100,0.00,,---,0.00,618.00,VWS V14.00,2013-03-02 21:08:00,
2013-03-02 15:13:00,55.0,55.0,30.23,NW,311,19.0,31.0,100,0.00,,---,0.00,607.00,VWS V14.00,2013-03-02 21:13:00,
2013-03-02 15:18:00,54.5,54.5,30.22,NNW,336,18.0,18.0,100,0.00,,---,0.00,588.00,VWS V14.00,2013-03-02 21:18:00,
2013-03-02 15:23:00,54.7,54.7,30.22,NW,311,20.0,20.0,100,0.00,,---,0.00,577.00,VWS V14.00,2013-03-02 21:23:00,
2013-03-02 15:28:00,54.7,54.7,30.22,NW,319,14.0,18.0,100,0.00,,---,0.00,558.00,VWS V14.00,2013-03-02 21:28:00,
2013-03-02 15:33:00,55.1,55.1,30.22,NNW,335,9.0,17.0,100,0.00,,---,0.00,540.00,VWS V14.00,2013-03-02 21:33:00,
2013-03-02 15:38:00,54.8,54.8,30.22,North,357,12.0,13.0,100,0.00,,---,0.00,526.00,VWS V14.00,2013-03-02 21:38:00,
2013-03-02 15:43:00,55.1,55.1,30.22,NW,320,14.0,22.0,100,0.00,,---,0.00,519.00,VWS V14.00,2013-03-02 21:43:00,
2013-03-02 15:48:00,55.0,55.0,30.22,WNW,291,17.0,20.0,100,0.00,,---,0.00,500.00,VWS V14.00,2013-03-02 21:48:00,
2013-03-02 15:53:00,54.7,54.7,30.22,NW,318,16.0,27.0,100,0.00,,---,0.00,484.00,VWS V14.00,2013-03-02 21:53:00,
2013-03-02 15:58:00,54.7,54.7,30.22,NW,315,14.0,14.0,100,0.00,,---,0.00,465.00,VWS V14.00,2013-03-02 21:58:00,
2013-03-02 16:03:00,54.7,54.7,30.22,NW,323,17.0,17.0,100,0.00,,---,0.00,445.00,VWS V14.00,2013-03-02 22:03:00,
2013-03-02 16:08:00,54.8,54.8,30.22,NW,319,13.0,20.0,100,0.00,,---,0.00,429.00,VWS V14.00,2013-03-02 22:08:00,
2013-03-02 16:13:00,54.8,54.8,30.22,NNW,330,19.0,24.0,100,0.00,,---,0.00,415.00,VWS V14.00,2013-03-02 22:13:00,
2013-03-02 16:18:00,54.7,54.7,30.22,NW,312,15.0,20.0,100,0.00,,---,0.00,396.00,VWS V14.00,2013-03-02 22:18:00,
2013-03-02 16:23:00,54.7,54.7,30.22,NNW,332,14.0,20.0,100,0.00,,---,0.00,377.00,VWS V14.00,2013-03-02 22:23:00,
2013-03-02 16:28:00,54.7,54.7,30.22,NW,319,12.0,18.0,100,0.00,,---,0.00,361.00,VWS V14.00,2013-03-02 22:28:00,
2013-03-02 16:33:00,54.8,54.8,30.22,NNW,344,8.0,16.0,100,0.00,,---,0.00,341.00,VWS V14.00,2013-03-02 22:33:00,
2013-03-02 16:38:00,54.8,54.8,30.22,NNW,347,17.0,24.0,100,0.00,,---,0.00,327.00,VWS V14.00,2013-03-02 22:38:00,
2013-03-02 16:43:00,54.7,54.7,30.22,NNW,332,18.0,18.0,100,0.00,,---,0.00,304.00,VWS V14.00,2013-03-02 22:43:00,
2013-03-02 16:48:00,54.8,54.8,30.22,North,0,8.0,17.0,100,0.00,,---,0.00,289.00,VWS V14.00,2013-03-02 22:48:00,
2013-03-02 16:53:00,55.0,55.0,30.22,NNW,346,11.0,13.0,100,0.00,,---,0.00,271.00,VWS V14.00,2013-03-02 22:53:00,
2013-03-02 16:58:00,54.7,54.7,30.22,NW,325,13.0,16.0,100,0.00,,---,0.00,252.00,VWS V14.00,2013-03-02 22:58:00,
2013-03-02 17:03:00,54.5,54.5,30.22,NW,312,14.0,14.0,100,0.00,,---,0.00,234.00,VWS V14.00,2013-03-02 23:03:00,
2013-03-02 17:08:00,54.7,54.7,30.22,North,1,12.0,15.0,100,0.00,,---,0.00,216.00,VWS V14.00,2013-03-02 23:08:00,
2013-03-02 17:13:00,54.7,54.7,30.22,NW,318,11.0,19.0,100,0.00,,---,0.00,199.00,VWS V14.00,2013-03-02 23:13:00,
2013-03-02 17:18:00,54.7,54.7,30.23,NNW,347,9.0,18.0,100,0.00,,---,0.00,179.00,VWS V14.00,2013-03-02 23:18:00,
2013-03-02 17:23:00,54.4,54.4,30.23,NNW,342,17.0,21.0,100,0.00,,---,0.00,162.00,VWS V14.00,2013-03-02 23:23:00,
2013-03-02 17:28:00,54.4,54.4,30.23,NW,320,20.0,20.0,100,0.00,,---,0.00,146.00,VWS V14.00,2013-03-02 23:28:00,
2013-03-02 17:33:00,54.2,54.2,30.24,NW,304,11.0,12.0,100,0.00,,---,0.00,130.00,VWS V14.00,2013-03-02 23:33:00,
2013-03-02 17:38:00,54.1,54.1,30.24,NW,320,12.0,14.0,100,0.00,,---,0.00,113.00,VWS V14.00,2013-03-02 23:38:00,
2013-03-02 17:43:00,53.9,53.9,30.24,NNW,332,10.0,16.0,100,0.00,,---,0.00,93.00,VWS V14.00,2013-03-02 23:43:00,
2013-03-02 17:48:00,53.8,53.8,30.24,NNW,328,7.0,14.0,100,0.00,,---,0.00,76.00,VWS V14.00,2013-03-02 23:48:00,
2013-03-02 17:53:00,53.6,53.6,30.24,NNW,346,12.0,14.0,100,0.00,,---,0.00,56.00,VWS V14.00,2013-03-02 23:53:00,
2013-03-02 17:58:00,53.5,53.5,30.24,North,354,13.0,13.0,100,0.00,,---,0.00,46.00,VWS V14.00,2013-03-02 23:58:00,
2013-03-02 18:03:00,53.3,53.3,30.24,NNW,332,5.0,8.0,100,0.00,,---,0.00,33.00,VWS V14.00,2013-03-03 00:03:00,
2013-03-02 18:08:00,52.9,52.9,30.24,NNW,330,10.0,11.0,100,0.00,,---,0.00,25.00,VWS V14.00,2013-03-03 00:08:00,
2013-03-02 18:13:00,52.8,52.8,30.24,NNW,329,3.0,5.0,100,0.00,,---,0.00,16.00,VWS V14.00,2013-03-03 00:13:00,
2013-03-02 18:18:00,52.5,52.5,30.25,NNW,335,7.0,10.0,100,0.00,,---,0.00,11.00,VWS V14.00,2013-03-03 00:18:00,
2013-03-02 18:23:00,52.2,52.2,30.25,North,359,5.0,7.0,100,0.00,,---,0.00,0.00,VWS V14.00,2013-03-03 00:23:00,
2013-03-02 18:28:00,51.7,51.7,30.25,NNW,328,7.0,7.0,100,0.00,,---,0.00,0.00,VWS V14.00,2013-03-03 00:28:00,
2013-03-02 18:33:00,51.4,51.4,30.26,North,354,5.0,8.0,100,0.00,,---,0.00,0.00,VWS V14.00,2013-03-03 00:33:00,
2013-03-02 18:38:00,51.0,51.0,30.26,NNW,340,5.0,7.0,100,0.00,,---,0.00,0.00,VWS V14.00,2013-03-03 00:38:00,
2013-03-02 18:43:00,50.7,50.7,30.26,NNW,339,4.0,4.0,100,0.00,,---,0.00,0.00,VWS V14.00,2013-03-03 00:43:00,
2013-03-02 18:48:00,50.4,50.4,30.26,NNW,329,2.0,5.0,100,0.00,,---,0.00,0.00,VWS V14.00,2013-03-03 00:48:00,
2013-03-02 18:53:00,50.1,50.1,30.26,NW,325,2.0,4.0,100,0.00,,---,0.00,0.00,VWS V14.00,2013-03-03 00:53:00,
2013-03-02 18:58:00,49.8,49.8,30.26,NW,326,1.0,3.0,100,0.00,,---,0.00,0.00,VWS V14.00,2013-03-03 00:58:00,
2013-03-02 19:03:00,49.6,49.6,30.26,NW,326,3.0,3.0,100,0.00,,---,0.00,0.00,VWS V14.00,2013-03-03 01:03:00,
2013-03-02 19:08:00,49.5,49.5,30.26,NNW,347,2.0,2.0,100,0.00,,---,0.00,0.00,VWS V14.00,2013-03-03 01:08:00,
2013-03-02 19:13:00,49.3,49.3,30.26,NNW,335,5.0,5.0,100,0.00,,---,0.00,0.00,VWS V14.00,2013-03-03 01:13:00,
2013-03-02 19:18:00,49.2,49.2,30.26,NNW,336,2.0,3.0,100,0.00,,---,0.00,0.00,VWS V14.00,2013-03-03 01:18:00,
2013-03-02 19:23:00,48.9,48.9,30.26,NW,323,3.0,3.0,100,0.00,,---,0.00,0.00,VWS V14.00,2013-03-03 01:23:00,
2013-03-02 19:28:00,48.6,48.6,30.26,NNW,340,0.0,1.0,100,0.00,,---,0.00,0.00,VWS V14.00,2013-03-03 01:28:00,
2013-03-02 19:33:00,48.5,48.5,30.26,NW,326,0.0,2.0,100,0.00,,---,0.00,0.00,VWS V14.00,2013-03-03 01:33:00,
2013-03-02 19:38:00,48.2,48.2,30.26,NNW,328,1.0,2.0,100,0.00,,---,0.00,0.00,VWS V14.00,2013-03-03 01:38:00,
2013-03-02 19:43:00,48.0,48.0,30.26,NW,320,0.0,3.0,100,0.00,,---,0.00,0.00,VWS V14.00,2013-03-03 01:43:00,
2013-03-02 19:48:00,47.7,47.7,30.27,NW,322,0.0,1.0,100,0.00,,---,0.00,0.00,VWS V14.00,2013-03-03 01:48:00,
2013-03-02 19:53:00,47.7,47.7,30.27,NW,323,1.0,1.0,100,0.00,,---,0.00,0.00,VWS V14.00,2013-03-03 01:53:00,
2013-03-02 19:58:00,47.7,47.7,30.27,NW,322,1.0,1.0,100,0.00,,---,0.00,0.00,VWS V14.00,2013-03-03 01:58:00,
2013-03-02 20:03:00,47.6,47.6,30.27,NW,322,1.0,2.0,100,0.00,,---,0.00,0.00,VWS V14.00,2013-03-03 02:03:00,
2013-03-02 20:08:00,47.4,47.4,30.27,NW,322,0.0,1.0,100,0.00,,---,0.00,0.00,VWS V14.00,2013-03-03 02:08:00,
2013-03-02 20:13:00,47.3,47.3,30.27,NW,322,1.0,1.0,100,0.00,,---,0.00,0.00,VWS V14.00,2013-03-03 02:13:00,
2013-03-02 20:18:00,47.0,47.0,30.27,NW,322,0.0,0.0,100,0.00,,---,0.00,0.00,VWS V14.00,2013-03-03 02:18:00,
2013-03-02 20:23:00,46.8,46.8,30.27,NW,322,0.0,0.0,100,0.00,,---,0.00,0.00,VWS V14.00,2013-03-03 02:23:00,
2013-03-02 20:28:00,46.7,46.7,30.27,NW,322,0.0,0.0,100,0.00,,---,0.00,0.00,VWS V14.00,2013-03-03 02:28:00,
2013-03-02 20:33:00,46.4,46.4,30.27,NW,322,0.0,0.0,100,0.00,,---,0.00,0.00,VWS V14.00,2013-03-03 02:33:00,
2013-03-02 20:38:00,46.2,46.2,30.27,NW,322,0.0,0.0,100,0.00,,---,0.00,0.00,VWS V14.00,2013-03-03 02:38:00,
2013-03-02 20:43:00,46.1,46.1,30.27,NW,322,0.0,0.0,100,0.00,,---,0.00,0.00,VWS V14.00,2013-03-03 02:43:00,
2013-03-02 20:48:00,45.8,45.8,30.27,NW,322,0.0,0.0,100,0.00,,---,0.00,0.00,VWS V14.00,2013-03-03 02:48:00,
2013-03-02 20:53:00,45.5,45.5,30.27,NW,322,0.0,0.0,100,0.00,,---,0.00,0.00,VWS V14.00,2013-03-03 02:53:00,
2013-03-02 20:58:00,45.2,45.2,30.27,NW,322,0.0,0.0,100,0.00,,---,0.00,0.00,VWS V14.00,2013-03-03 02:58:00,
2013-03-02 21:02:00,44.9,44.9,30.28,NW,322,0.0,0.0,100,0.00,,---,0.00,0.00,VWS V14.00,2013-03-03 03:02:00,
2013-03-02 21:07:00,44.6,44.6,30.28,NW,322,0.0,0.0,100,0.00,,---,0.00,0.00,VWS V14.00,2013-03-03 03:07:00,
2013-03-02 21:12:00,44.2,44.2,30.28,NW,322,0.0,0.0,100,0.00,,---,0.00,0.00,VWS V14.00,2013-03-03 03:12:00,
2013-03-02 21:17:00,43.9,43.9,30.28,NW,322,0.0,0.0,100,0.00,,---,0.00,0.00,VWS V14.00,2013-03-03 03:17:00,
2013-03-02 21:22:00,43.6,43.6,30.28,NW,322,0.0,0.0,100,0.00,,---,0.00,0.00,VWS V14.00,2013-03-03 03:22:00,
2013-03-02 21:27:00,43.5,43.5,30.28,NW,323,0.0,0.0,100,0.00,,---,0.00,0.00,VWS V14.00,2013-03-03 03:27:00,
2013-03-02 21:32:00,43.3,43.3,30.28,NW,322,0.0,0.0,100,0.00,,---,0.00,0.00,VWS V14.00,2013-03-03 03:32:00,
2013-03-02 21:37:00,43.2,43.2,30.28,NW,322,0.0,0.0,100,0.00,,---,0.00,0.00,VWS V14.00,2013-03-03 03:37:00,
2013-03-02 21:42:00,43.3,43.3,30.28,NW,322,0.0,0.0,100,0.00,,---,0.00,0.00,VWS V14.00,2013-03-03 03:42:00,
2013-03-02 21:47:00,43.5,43.5,30.27,NW,322,0.0,0.0,100,0.00,,---,0.00,0.00,VWS V14.00,2013-03-03 03:47:00,
2013-03-02 21:52:00,43.2,43.2,30.27,NW,322,0.0,0.0,100,0.00,,---,0.00,0.00,VWS V14.00,2013-03-03 03:52:00,
2013-03-02 21:57:00,42.9,42.9,30.27,NW,323,0.0,0.0,100,0.00,,---,0.00,0.00,VWS V14.00,2013-03-03 03:57:00,
2013-03-02 22:02:00,42.6,42.6,30.28,NW,323,0.0,0.0,100,0.00,,---,0.00,0.00,VWS V14.00,2013-03-03 04:02:00,
2013-03-02 22:07:00,42.3,42.3,30.28,NW,322,0.0,0.0,100,0.00,,---,0.00,0.00,VWS V14.00,2013-03-03 04:07:00,
2013-03-02 22:12:00,42.2,42.2,30.28,NW,322,0.0,0.0,100,0.00,,---,0.00,0.00,VWS V14.00,2013-03-03 04:12:00,
2013-03-02 22:17:00,42.0,42.0,30.28,NW,322,0.0,0.0,100,0.00,,---,0.00,0.00,VWS V14.00,2013-03-03 04:17:00,
2013-03-02 22:22:00,41.9,41.9,30.28,NW,322,0.0,0.0,100,0.00,,---,0.00,0.00,VWS V14.00,2013-03-03 04:22:00,
2013-03-02 22:27:00,41.8,41.8,30.28,NW,322,0.0,0.0,100,0.00,,---,0.00,0.00,VWS V14.00,2013-03-03 04:27:00,
2013-03-02 22:32:00,41.5,41.5,30.27,NW,322,0.0,0.0,100,0.00,,---,0.00,0.00,VWS V14.00,2013-03-03 04:32:00,
2013-03-02 22:37:00,40.9,0.0,30.27,NW,322,0.0,0.0,0,0.00,,---,0.00,0.00,VWS V14.00,2013-03-03 04:37:00,
2013-03-02 22:42:00,40.3,0.0,30.27,NW,322,0.0,0.0,0,0.00,,---,0.00,0.00,VWS V14.00,2013-03-03 04:42:00,
2013-03-02 22:47:00,40.0,0.0,30.27,NW,322,0.0,0.0,0,0.00,,---,0.00,0.00,VWS V14.00,2013-03-03 04:47:00,
2013-03-02 22:52:00,40.0,40.0,30.27,NW,322,0.0,0.0,100,0.00,,---,0.00,0.00,VWS V14.00,2013-03-03 04:52:00,
2013-03-02 22:57:00,40.0,40.0,30.27,NW,322,0.0,0.0,100,0.00,,---,0.00,0.00,VWS V14.00,2013-03-03 04:57:00,
2013-03-02 23:00:00,40.2,40.2,30.27,NW,322,0.0,0.0,100,0.00,,---,0.00,0.00,VWS V14.00,2013-03-03 05:00:00,
2013-03-02 23:05:00,40.0,0.0,30.27,NW,322,0.0,0.0,0,0.00,,---,0.00,0.00,VWS V14.00,2013-03-03 05:05:00,
2013-03-02 23:10:00,40.0,0.0,30.27,NW,322,0.0,0.0,0,0.00,,---,0.00,0.00,VWS V14.00,2013-03-03 05:10:00,
2013-03-02 23:15:00,40.2,0.0,30.27,NW,322,0.0,0.0,0,0.00,,---,0.00,0.00,VWS V14.00,2013-03-03 05:15:00,
2013-03-02 23:20:00,40.6,0.0,30.27,NW,322,0.0,0.0,0,0.00,,---,0.00,0.00,VWS V14.00,2013-03-03 05:20:00,
2013-03-02 23:25:00,40.9,0.0,30.27,NW,322,0.0,0.0,0,0.00,,---,0.00,0.00,VWS V14.00,2013-03-03 05:25:00,
2013-03-02 23:30:00,40.6,0.0,30.27,NW,322,0.0,0.0,0,0.00,,---,0.00,0.00,VWS V14.00,2013-03-03 05:30:00,
2013-03-02 23:35:00,40.2,0.0,30.27,NW,322,0.0,0.0,0,0.00,,---,0.00,0.00,VWS V14.00,2013-03-03 05:35:00,
2013-03-02 23:40:00,39.8,0.0,30.27,NW,322,0.0,0.0,0,0.00,,---,0.00,0.00,VWS V14.00,2013-03-03 05:40:00,
2013-03-02 23:45:00,39.3,-35.3,30.27,NW,322,0.0,0.0,3,0.00,,---,0.00,0.00,VWS V14.00,2013-03-03 05:45:00,
2013-03-02 23:50:00,38.9,-30.5,30.27,NW,322,0.0,0.0,4,0.00,,---,0.00,0.00,VWS V14.00,2013-03-03 05:50:00,
2013-03-02 23:55:00,38.6,-30.7,30.27,NW,322,0.0,0.0,4,0.00,,---,0.00,0.00,VWS V14.00,2013-03-03 05:55:00,